| time (UTC) | temp F | wind direction | speed knots | gust knots | rain 1hr in | rain 24hr in | rain mn in | humidity % | barometer mb |
| 20260507051817 | 48 | 230 | 7.8 | 0.0 | 0.00 | 0.00 | 0.00 | 93 | |
| 20260507042031 | 50 | 210 | 4.3 | 0.0 | 0.00 | 0.00 | 0.00 | 87 | |
| 20260507031819 | 48 | 220 | 4.3 | 0.0 | 0.00 | 0.00 | 0.00 | 93 | |
| 20260507021816 | 48 | 230 | 7.8 | 0.0 | 0.00 | 0.00 | 0.00 | 93 | |
| 20260507011918 | 52 | 250 | 6.1 | 0.0 | 0.00 | 0.00 | 0.00 | 87 | |
| 20260507001818 | 52 | 240 | 4.3 | 0.0 | 0.00 | 0.00 | 0.00 | 93 | |
| 20260506231819 | 52 | 230 | 6.1 | 0.0 | 0.00 | 0.00 | 0.00 | 93 | |
| 20260506222030 | 54 | 250 | 10.4 | 0.0 | 0.00 | 0.00 | 0.00 | 93 | |
| 20260506211818 | 54 | 290 | 6.1 | 0.0 | 0.00 | 0.00 | 0.00 | 93 | |
| 20260506201835 | 54 | 280 | 12.2 | 20.9 | 0.00 | 0.00 | 0.00 | 93 | |
| 20260506191922 | 59 | 280 | 6.1 | 0.0 | 0.00 | 0.00 | 0.00 | 77 | |
| 20260506181907 | 63 | 10 | 13.9 | 0.0 | 0.00 | 0.00 | 0.00 | 63 | |
| 20260506171822 | 64 | 10 | 10.4 | 0.0 | 0.00 | 0.00 | 0.00 | 55 | |
| 20260506162031 | 72 | 90 | 6.1 | 0.0 | 0.00 | 0.00 | 0.00 | 37 | |
| 20260506151834 | 72 | 100 | 10.4 | 0.0 | 0.00 | 0.00 | 0.00 | 37 | |
| 20260506141834 | 72 | 170 | 10.4 | 0.0 | 0.00 | 0.00 | 0.00 | 35 | |
| 20260506131835 | 72 | 150 | 7.8 | 0.0 | 0.00 | 0.00 | 0.00 | 40 | |
| 20260506121835 | 70 | 160 | 7.8 | 0.0 | 0.00 | 0.00 | 0.00 | 40 | |
| 20260506111820 | 68 | 220 | 4.3 | 0.0 | 0.00 | 0.00 | 0.00 | 49 | |
| 20260506102031 | 66 | 190 | 4.3 | 0.0 | 0.00 | 0.00 | 0.00 | 55 | |
| 20260506091820 | 63 | 0 | 4.3 | 0.0 | 0.00 | 0.00 | 0.00 | 59 | |
| 20260506081818 | 59 | 200 | 4.3 | 0.0 | 0.00 | 0.00 | 0.00 | 67 | |
| 20260506071821 | 59 | 220 | 4.3 | 0.0 | 0.00 | 0.00 | 0.00 | 77 | |
| 20260506061821 | 55 | 230 | 1.7 | 0.0 | 0.00 | 0.00 | 0.00 | 87 |